Flag for Russia Weather past 2 weeks in Penza, Russia

Now
-2 °F

Clear.


Feels Like: -10 °F
Forecast: 17 / 31 °F
Wind: 3 mph from North

Location: Saratov / Tsentralny

Current Time: Jan 30, 2015 at 5:46:13 AM

Latest Report: Jan 30, 2015 at 5:00 AM


Visibility: 10 mi

Pressure: 30.07 "Hg

Humidity: 100%

Dew point: -2 °F

Location of PenzaLocation

Historic Weather in Penza — Graph

°F

Penza temperature yesterday

Maximum temperature yesterday: 5 °F (at 12:00 AM)
Minimum temperature yesterday: -4 °F (at 5:00 AM)
Average temperature yesterday: -1 °F

Past Weeks' High & Low Weather Summary

 TemperatureHumidityPressure
High54 °F (Jan 16, 6:00 AM)100% (Jan 16, 10:00 AM)30.80 "Hg (Jan 16, 10:00 AM)
Low-13 °F (Jan 25, 6:00 AM)57% (Jan 21, 12:30 PM)29.83 "Hg (Jan 29, 12:00 PM)
Average12 °F86%30.35 "Hg
* Reported Jan 15 4:00 AM — Jan 30 4:30 AM, Penza, Weather by CustomWeather, © 2014

Note: Actual official high and low records may vary slightly from our data, if they occured in-between our weather recording intervals... More about our weather records

Advertising

Penza weather history for previous 24 hours

 ConditionsComfort  
Time TempWeatherWind HumidityBarometerVisibility
4:30 AM
Jan 30
-2 °FClear.3 mph100%30.07 "Hg10 mi
4:00 AM-2 °FClear.3 mph100%30.07 "Hg10 mi
3:30 AM0 °FLight snow. Passing clouds.3 mph84%30.09 "HgN/A
3:00 AM0 °FLight snow. Passing clouds.3 mph84%30.09 "HgN/A
2:30 AM0 °FPassing clouds.3 mph84%30.09 "HgN/A
2:00 AM0 °FPassing clouds.3 mph84%30.09 "HgN/A
1:30 AM-2 °FLight snow. Mostly cloudy.3 mph92%30.09 "HgN/A
1:00 AM-2 °FLight snow. Mostly cloudy.3 mph92%30.09 "HgN/A
12:30 AM-2 °FLight snow. Mostly cloudy.6 mph92%30.09 "HgN/A
12:00 AM-2 °FLight snow. Mostly cloudy.6 mph92%30.09 "HgN/A
11:30 PM
Jan 29
-2 °FPartly cloudy.3 mph92%30.09 "HgN/A
11:00 PM-2 °FPassing clouds.3 mph92%30.09 "HgN/A
10:30 PM-4 °FPartly cloudy.6 mph92%30.09 "HgN/A
10:00 PM-4 °FPartly cloudy.6 mph92%30.09 "HgN/A
9:30 PM-4 °FLight snow. Passing clouds.6 mph92%30.09 "HgN/A
9:00 PM-4 °FLight snow. Passing clouds.6 mph92%30.09 "HgN/A
8:30 PM-2 °FLight snow. Mostly cloudy.6 mph92%30.09 "HgN/A
8:00 PM-2 °FLight snow. Mostly cloudy.8 mph92%30.09 "HgN/A
7:30 PM-2 °FLight snow. Mostly cloudy.3 mph92%30.09 "HgN/A
7:00 PM-2 °FLight snow. Mostly cloudy.3 mph84%30.09 "HgN/A
6:30 PM-2 °FLight snow. Ice fog.6 mph92%30.09 "Hg3 mi
6:00 PM-2 °FLight snow. Ice fog.6 mph92%30.09 "Hg3 mi
5:30 PM-2 °FLight snow. Ice fog.6 mph92%30.07 "Hg2 mi
5:00 PM-2 °FLight snow. Ice fog.6 mph92%30.07 "Hg2 mi
4:30 PM0 °FLight snow. Ice fog.6 mph84%30.07 "Hg3 mi
4:00 PM0 °FPartly sunny.8 mph84%30.07 "HgN/A
3:30 PM1 °FPartly sunny.8 mph85%30.09 "HgN/A
3:00 PM1 °FPartly sunny.8 mph85%30.09 "HgN/A
2:30 PM1 °FPartly sunny.6 mph85%30.09 "HgN/A
2:00 PM1 °FPartly sunny.6 mph85%30.09 "HgN/A
1:30 PM1 °FPartly sunny.6 mph85%30.09 "HgN/A
1:00 PM1 °FSunny.6 mph85%30.09 "Hg10 mi
12:00 PM0 °FSunny.6 mph100%29.83 "Hg10 mi
11:30 AM0 °FSunny.6 mph92%30.09 "Hg10 mi
11:00 AM0 °FLight snow. Partly sunny.6 mph92%30.09 "HgN/A
10:30 AM0 °FSunny.6 mph92%30.09 "Hg10 mi
10:00 AM0 °FSunny.6 mph92%30.09 "Hg10 mi
9:30 AM-4 °FSunny.6 mph92%30.09 "Hg10 mi
9:00 AM-4 °FSunny.6 mph92%30.09 "Hg10 mi
8:30 AM-4 °FPassing clouds.6 mph100%30.09 "HgN/A
8:00 AM-4 °FPassing clouds.6 mph100%30.09 "HgN/A
7:30 AM-4 °FPassing clouds.6 mph100%30.09 "Hg4 mi
7:00 AM-4 °FIce fog.6 mph100%30.09 "Hg2 mi
6:30 AM-4 °FIce fog.6 mph100%30.09 "Hg3 mi
6:00 AM-4 °FPassing clouds.6 mph100%30.09 "HgN/A
5:30 AM-4 °FPassing clouds.6 mph100%30.09 "HgN/A
5:00 AM-4 °FPassing clouds.6 mph100%30.09 "HgN/A
Weather by CustomWeather, © 2014

See weather overviewHow to use our weather pages